Regional Weather Roundup
Issued by NWS

Home | Current Version | Previous Version | Graphics & Text | Print | Product List | Glossary On
Versions: 1 2 3 4 5 6 7 8 9 10 11 12 13 14 15 16 17 18 19 20 21 22 23 24 25 26 27 28 29 30 31 32 33 34 35 36 37 38 39 40 41 42 43 44 45 46 47 48 49 50
000
ASUS45 KABQ 290410
RWRNM
NEW MEXICO REGIONAL WEATHER ROUNDUP
NATIONAL WEATHER SERVICE ALBUQUERQUE NM
1000 PM MDT TUE JUL 28 2015

NOTE: "FAIR" MEANS FEW OR NO CLOUDS BELOW 12,000 FEET AGL WITH NO
       SIGNIFICANT WEATHER OR OBSTRUCTIONS TO VISION.

      THIS PRODUCT IS RELEASED AS TWO VERSIONS.  ONE VERSION NEAR
      THE TOP OF THE HOUR CONTAINING PRELIMINARY DATA FROM ALBUQUERQUE
      AND OTHER STATIONS.  A FINAL VERSION WITH ADDITIONAL DATA IS
      ISSUED ABOUT 10 MINUTES AFTER THE HOUR.

NMZ501-503-504-510>518-290500-
NORTHWEST PLATEAU/NORTHCENTRAL MOUNTAINS

CITY           SKY/WX    TMP DP  RH WIND       PRES   REMARKS
FARMINGTON     CLEAR     75  19  12 CALM      30.13R
LOS ALAMOS     CLOUDY    65  53  64 SW10G18   30.35R
SANTA FE       CLOUDY    73  50  44 SE13      30.27S
TAOS           MOCLDY    64  45  48 SE17G24   30.34R
ANGEL FIRE     MOCLDY    54  51  90 SW6       30.47R

$$
NMZ402-403-502-505>509-290500-
WESTCENTRAL MOUNTAINS/SOUTHWEST MOUNTAINS

CITY           SKY/WX    TMP DP  RH WIND       PRES   REMARKS
GALLUP         CLOUDY    75  45  34 S8        30.25R
GRANTS         CLOUDY    68  53  58 CALM      30.28R
SILVER CITY      N/A     75  54  46 CALM      30.21R

$$
NMZ407-409-411-412-290500-
SOUTHERN DESERTS

CITY           SKY/WX    TMP DP  RH WIND       PRES   REMARKS
LORDSBURG      FAIR      82  52  34 W14G22    30.08R
DEMING         LGT RAIN  77  59  53 E21G29    30.13R
LAS CRUCES     CLOUDY    74  59  58 W15       30.16R
HOLLOMAN AFB   DRIZZLE   79  61  53 S10       30.12R
ALAMOGORDO     CLOUDY    72  63  73 SE3       30.15R
T OR C         LGT RAIN  72  63  73 E3        30.18R

$$
NMZ519>523-290500-
CENTRAL VALLEYS/CENTRAL HIGHLANDS

CITY           SKY/WX    TMP DP  RH WIND       PRES   REMARKS
ALBUQUERQUE    CLOUDY    79  51  37 E17       30.19R
DOUBLE EAGLE   PTCLDY    75  54  46 SE10      30.22R
MORIARTY ARPT    N/A     66  53  62 E8        30.31R
CLINES CORNERS CLOUDY    60  55  83 NE9       30.35R
BELEN          CLOUDY    77  52  41 SE12      30.19R
SOCORRO        MOCLDY    75  55  50 W6        30.16R

$$
NMZ524>526-539-540-290500-
SOUTHCENTRAL MOUNTAINS

CITY           SKY/WX    TMP DP  RH WIND       PRES   REMARKS
RUIDOSO          N/A    N/A N/A N/A MISG        N/A

$$
NMZ527>531-290500-
NORTHEAST HIGHLANDS/NORTHEAST PLAINS

CITY           SKY/WX    TMP DP  RH WIND       PRES   REMARKS
LAS VEGAS      CLOUDY    60  56  86 NE5       30.37R
RATON          CLOUDY    65  53  65 SW9       30.32R
CLAYTON        CLOUDY    67  61  81 SW6       30.23R

$$
NMZ532>537-290500-
EASTCENTRAL PLAINS

CITY           SKY/WX    TMP DP  RH WIND       PRES   REMARKS
TUCUMCARI      LGT RAIN  68  65  90 E10       30.16F
CANNON AFB     MOCLDY    68  64  88 NE17      30.16S THUNDER
CLOVIS AIRPORT CLOUDY    66  63  88 N18       30.18F

$$
NMZ028-029-538-290500-
SOUTHEAST PLAINS

CITY           SKY/WX    TMP DP  RH WIND       PRES   REMARKS
ROSWELL        CLOUDY    77  63  61 NE8       30.13R
ARTESIA        CLOUDY    79  64  61 N21       30.08F
CARLSBAD       CLOUDY    82  62  50 NE5       30.03R THUNDER
HOBBS          MOCLDY    77  59  53 N23       30.10R


$$


USA.gov is the U.S. government's official web portal to all federal, state and local government web resources and services.